This demonstration page uses our WeatherBlox Daily Observations layout. Learn more.

Left ArrowRight Arrow

Hourly Observations for October 22, 2021

Temp ( °F °C ) Dew Point ( °F °C ) Humidity (%) Winds ( mph kmh ) Pressure ( in mb ) Visibility ( mi km ) Precip ( " mm )
12:53 am 00:53 Cloudy with Light Rain 67 19.4 65 18.3 93 93 SW 6 9 30.02 1017 10 16 0.00 0.00
1:00 am 01:00 Cloudy with Nearby Thunderstorms 67 19.4 65 18.3 93 93 SW 7 11 30.02 1017 10 16 0.00 0.00
1:28 am 01:28 Cloudy with Light Rain 67 19.4 66 18.9 97 97 WSW 3 6 30.02 1017 10 16 0.01 0.25
1:53 am 01:53 Mostly Cloudy 67 19.4 65 18.3 93 93 SW 3 6 30.02 1017 10 16 0.01 0.25
2:05 am 02:05 Mostly Cloudy 67 19.4 65 18.3 93 93 Calm 30.01 1016 10 16 0.00 0.00
2:26 am 02:26 Partly Cloudy 67 19.4 65 18.3 93 93 SSW 3 6 30.02 1017 10 16 0.00 0.00
2:53 am 02:53 Partly Cloudy 66 18.9 65 18.3 96 96 SSW 3 6 30.02 1017 10 16 0.00 0.00
3:53 am 03:53 Mostly Clear 65 18.3 64 17.8 97 97 SSW 5 7 30.01 1016 10 16 0.00 0.00
4:53 am 04:53 Clear 64 17.8 62 16.7 93 93 W 3 6 30.01 1016 10 16 0.00 0.00
5:53 am 05:53 Clear 63 17.2 61 16.1 93 93 WSW 3 6 30.01 1016 10 16 0.00 0.00
6:31 am 06:31 Partly Cloudy 61 16.1 60 15.6 97 97 Calm 30.02 1017 10 16 0.00 0.00
6:41 am 06:41 Mostly Cloudy 61 16.1 60 15.6 97 97 Calm 30.02 1017 10 16 0.00 0.00
6:53 am 06:53 Cloudy 61 16.1 59 15 93 93 WNW 3 6 30.02 1017 10 16 0.00 0.00
7:50 am 07:50 Partly Cloudy 61 16 57 14 88 88 Calm 30.02 1017 10 16 0.00 0.00
7:53 am 07:53 Mostly Sunny 60 15.6 58 14.4 93 93 Calm 30.01 1016 10 16 0.00 0.00
8:53 am 08:53 Sunny 61 16.1 58 14.4 90 90 W 3 6 30.03 1017 10 16 0.00 0.00
9:04 am 09:04 Mostly Sunny 61 16.1 59 15 93 93 Calm 30.04 1017 10 16 0.00 0.00
9:53 am 09:53 Sunny 63 17.2 57 13.9 81 81 WSW 3 6 30.05 1018 10 16 0.00 0.00
10:53 am 10:53 Sunny 66 18.9 53 11.7 63 63 NW 8 13 30.05 1018 10 16 0.00 0.00
11:53 am 11:53 Sunny 69 20.6 51 10.6 53 53 NW 9 15 30.05 1018 10 16 0.00 0.00
12:53 pm 12:53 Sunny 70 21.1 49 9.4 47 47 VRB 5 7 30.04 1017 10 16 0.00 0.00
1:53 pm 13:53 Sunny 72 22.2 49 9.4 44 44 NW 6 9 30.01 1016 10 16 0.00 0.00
2:15 pm 14:15 Sunny 72 22.2 50 10 46 46 WSW 8 13 30.00 1016 10 16 0.00 0.00
2:53 pm 14:53 Sunny 73 22.8 50 10 44 44 VRB 7 11 29.99 1016 10 16 0.00 0.00
3:53 pm 15:53 Sunny 73 22.8 48 8.9 41 41 WNW 10 17 29.98 1015 10 16 0.00 0.00
4:53 pm 16:53 Sunny 73 22.8 49 9.4 43 43 WSW 9 15 29.98 1015 10 16 0.00 0.00
5:53 pm 17:53 Sunny 72 22.2 50 10 46 46 NW 10 17 29.98 1015 10 16 0.00 0.00
6:53 pm 18:53 Sunny 67 19.4 52 11.1 59 59 WNW 5 7 29.99 1016 10 16 0.00 0.00
7:53 pm 19:53 Clear 63 17.2 52 11.1 68 68 NW 5 7 30.00 1016 10 16 0.00 0.00
8:53 pm 20:53 Clear 62 16.7 52 11.1 70 70 NW 5 7 30.01 1016 10 16 0.00 0.00
9:53 pm 21:53 Clear 59 15 52 11.1 78 78 NW 6 9 30.02 1017 10 16 0.00 0.00
10:53 pm 22:53 Clear 58 14.4 52 11.1 81 81 NW 7 11 30.03 1017 10 16 0.00 0.00
11:53 pm 23:53 Clear 57 13.9 51 10.6 81 81 NNW 5 7 30.04 1017 10 16 0.00 0.00

Powered by AerisWeather